TimeEDT,TemperatureF,Dew PointF,Humidity,Sea Level PressureIn,VisibilityMPH,Wind Direction,Wind SpeedMPH,Gust SpeedMPH,PrecipitationIn,Events,Conditions,WindDirDegrees,DateUTC
12:56 AM,48.0,46.9,96,29.96,-9999.0,ENE,5.8,-,0.01,,Unknown,70,2012-10-29 04:56:00
1:56 AM,48.9,48.0,97,29.94,-9999.0,East,8.1,16.1,N/A,,Unknown,80,2012-10-29 05:56:00
2:56 AM,48.9,48.0,97,29.93,-9999.0,East,12.7,21.9,N/A,,Unknown,80,2012-10-29 06:56:00
3:56 AM,48.9,48.0,97,29.91,-9999.0,East,12.7,-,0.01,,Unknown,80,2012-10-29 07:56:00
4:56 AM,48.9,48.0,97,29.91,-9999.0,East,11.5,-,0.01,,Unknown,90,2012-10-29 08:56:00
5:56 AM,48.9,48.0,97,29.91,-9999.0,East,10.4,16.1,0.01,,Unknown,90,2012-10-29 09:56:00
6:56 AM,48.9,48.0,97,29.90,-9999.0,East,11.5,-,N/A,,Unknown,90,2012-10-29 10:56:00
7:56 AM,48.9,48.0,97,29.91,-9999.0,East,11.5,24.2,N/A,,Unknown,100,2012-10-29 11:56:00
8:56 AM,51.1,48.9,92,29.91,-9999.0,East,13.8,20.7,N/A,,Unknown,80,2012-10-29 12:56:00
9:56 AM,51.1,48.9,92,29.90,-9999.0,East,15.0,21.9,N/A,,Unknown,90,2012-10-29 13:56:00
10:56 AM,52.0,50.0,93,29.89,-9999.0,East,12.7,19.6,N/A,,Unknown,90,2012-10-29 14:56:00
11:56 AM,52.0,50.0,93,29.88,-9999.0,East,17.3,23.0,N/A,,Unknown,100,2012-10-29 15:56:00
12:56 PM,52.0,50.0,93,29.87,-9999.0,East,15.0,28.8,0.01,,Unknown,100,2012-10-29 16:56:00
1:56 PM,54.0,50.0,86,29.84,-9999.0,East,16.1,27.6,N/A,,Unknown,80,2012-10-29 17:56:00
2:56 PM,53.1,50.0,89,29.83,-9999.0,East,15.0,23.0,N/A,,Unknown,90,2012-10-29 18:56:00
3:56 PM,54.0,51.1,90,29.81,-9999.0,East,12.7,24.2,N/A,,Unknown,80,2012-10-29 19:56:00
4:56 PM,53.1,51.1,93,29.82,-9999.0,East,21.9,33.4,0.01,,Unknown,90,2012-10-29 20:56:00
5:56 PM,53.1,51.1,93,29.80,-9999.0,East,18.4,27.6,0.01,,Unknown,90,2012-10-29 21:56:00
6:56 PM,53.1,51.1,93,29.78,-9999.0,East,23.0,33.4,N/A,,Unknown,80,2012-10-29 22:56:00
7:56 PM,53.1,51.1,93,29.77,-9999.0,East,20.7,36.8,0.01,,Unknown,100,2012-10-29 23:56:00
8:56 PM,53.1,51.1,93,29.76,-9999.0,East,23.0,33.4,N/A,,Unknown,100,2012-10-30 00:56:00
9:56 PM,53.1,51.1,93,29.75,-9999.0,East,24.2,35.7,N/A,,Unknown,100,2012-10-30 01:56:00
10:56 PM,52.0,51.1,97,29.75,-9999.0,East,27.6,39.1,0.01,,Unknown,90,2012-10-30 02:56:00
11:56 PM,52.0,51.1,97,29.75,-9999.0,East,24.2,35.7,0.01,,Unknown,90,2012-10-30 03:56:00